GW4546 Weather Reports


time (UTC)temp
C
wind
direction
speed
KPH
gust
KPH
rain 1hr
cm
rain 24hr
cm
rain mn
cm
humidity
%
barometer
mb
20260906052604 23 169 0.0 0.0 0.00 0.00 0.00 92 1016.2
20260906052100 23 159 0.0 0.0 0.00 0.00 0.00 92 1016.1
20260906051556 23 163 0.0 0.0 0.00 0.00 0.00 92 1016.1
20260906051051 23 170 0.0 0.0 0.00 0.00 0.00 92 1015.8
20260906050546 23 173 0.0 1.6 0.00 0.00 0.00 91 1015.9
20260906050041 23 94 1.6 3.2 0.00 0.00 0.00 91 1015.8
20260906045539 23 155 0.0 1.6 0.00 0.00 0.00 91 1015.5
20260906045035 23 137 1.6 1.6 0.00 0.00 0.00 91 1015.7
20260906044531 23 141 1.6 1.6 0.00 0.00 0.00 91 1016.0
20260906044026 23 154 0.0 0.0 0.00 0.00 0.00 90 1016.0
20260906043521 23 142 1.6 1.6 0.00 0.00 0.00 91 1016.0
20260906043018 23 175 0.0 0.0 0.00 0.00 0.00 91 1016.0
20260906042517 23 171 0.0 0.0 0.00 0.00 0.00 90 1016.0
20260906042017 23 139 0.0 1.6 0.00 0.00 0.00 90 1016.2
20260906041513 23 170 0.0 0.0 0.00 0.00 0.00 90 1016.1
20260906041013 23 173 0.0 0.0 0.00 0.00 0.00 89 1016.1
20260906040508 23 174 0.0 0.0 0.00 0.00 0.00 89 1016.3
20260906040003 23 178 0.0 0.0 0.00 0.00 0.00 88 1016.4
20260906035458 23 123 1.6 1.6 0.00 0.00 0.00 89 1016.2
20260906034954 23 142 0.0 0.0 0.00 0.00 0.00 89 1016.2
20260906034454 23 173 0.0 0.0 0.00 0.00 0.00 89 1016.2
20260906033950 23 173 0.0 0.0 0.00 0.00 0.00 88 1016.1
20260906033450 23 173 0.0 0.0 0.00 0.00 0.00 87 1016.3
20260906032946 24 170 0.0 0.0 0.00 0.00 0.00 86 1016.2
20260906032442 24 165 0.0 1.6 0.00 0.00 0.00 85 1016.2
20260906031936 24 155 3.2 3.2 0.00 0.00 0.00 85 1016.0
20260906031432 24 125 0.0 0.0 0.00 0.00 0.00 85 1015.9
20260906030927 24 157 0.0 0.0 0.00 0.00 0.00 85 1016.1
20260906030421 24 151 0.0 0.0 0.00 0.00 0.00 85 1015.9
20260906025916 24 155 1.6 1.6 0.00 0.00 0.00 85 1015.8
20260906025410 24 136 1.6 1.6 0.00 0.00 0.00 84 1015.6
20260906024909 25 176 0.0 0.0 0.00 0.00 0.00 83 1015.8
20260906024408 25 134 1.6 1.6 0.00 0.00 0.00 83 1015.7
20260906023904 24 138 1.6 1.6 0.00 0.00 0.00 84 1015.8
20260906023400 24 168 0.0 0.0 0.00 0.00 0.00 84 1015.7
20260906022855 24 168 0.0 0.0 0.00 0.00 0.00 84 1015.7
20260906022349 24 168 0.0 0.0 0.00 0.00 0.00 83 1015.5
20260906021845 25 164 0.0 0.0 0.00 0.00 0.00 82 1015.7
20260906021344 25 178 0.0 0.0 0.00 0.00 0.00 82 1015.5
20260906020839 25 164 0.0 0.0 0.00 0.00 0.00 81 1015.3
20260906020339 25 161 0.0 1.6 0.00 0.00 0.00 81 1015.2
20260906015833 25 161 0.0 0.0 0.00 0.00 0.00 81 1015.2
20260906015332 25 173 0.0 0.0 0.00 0.00 0.00 80 1015.0
20260906014827 25 173 0.0 0.0 0.00 0.00 0.00 80 1015.1
20260906014322 25 173 0.0 0.0 0.00 0.00 0.00 79 1015.1
20260906013818 25 170 0.0 0.0 0.00 0.00 0.00 79 1014.9
20260906013313 25 178 0.0 0.0 0.00 0.00 0.00 78 1014.9
20260906012809 25 174 0.0 1.6 0.00 0.00 0.00 77 1014.9
20260906012309 26 170 0.0 0.0 0.00 0.00 0.00 76 1015.0
20260906011804 26 176 0.0 0.0 0.00 0.00 0.00 75 1014.9
20260906011304 26 173 1.6 1.6 0.00 0.00 0.00 74 1015.1
20260906010800 26 144 1.6 1.6 0.00 0.00 0.00 73 1015.0
20260906010255 26 175 0.0 0.0 0.00 0.00 0.00 74 1015.0
20260906005751 26 150 0.0 1.6 0.00 0.00 0.00 74 1014.9
20260906005250 26 174 0.0 0.0 0.00 0.00 0.00 72 1014.8
20260906004749 26 174 0.0 0.0 0.00 0.00 0.00 71 1014.9
20260906004244 26 174 0.0 0.0 0.00 0.00 0.00 70 1014.7
20260906003738 27 175 0.0 0.0 0.00 0.00 0.00 70 1014.7
20260906003234 27 175 0.0 0.0 0.00 0.00 0.00 69 1014.8
20260906002729 27 175 0.0 0.0 0.00 0.00 0.00 68 1014.9
20260906002228 27 168 0.0 0.0 0.00 0.00 0.00 67 1014.9
20260906001724 28 170 0.0 0.0 0.00 0.00 0.00 66 1014.9
20260906001220 28 161 3.2 4.8 0.00 0.00 0.00 64 1014.8
20260906000715 28 173 0.0 0.0 0.00 0.00 0.00 63 1014.9
20260906000212 28 165 0.0 0.0 0.00 0.00 0.00 62 1014.7
20260905235709 29 103 1.6 1.6 0.00 0.00 0.00 60 1014.8
20260905235204 29 144 1.6 1.6 0.00 0.00 0.00 61 1015.0
20260905234700 29 173 0.0 0.0 0.00 0.00 0.00 60 1015.1
20260905234155 30 167 1.6 3.2 0.00 0.00 0.00 59 1014.8
20260905233650 30 135 1.6 1.6 0.00 0.00 0.00 58 1015.1
20260905233149 30 69 4.8 6.4 0.00 0.00 0.00 58 1015.2
20260905232644 30 113 6.4 9.7 0.00 0.00 0.00 57 1015.0
20260905232140 30 56 6.4 9.7 0.00 0.00 0.00 55 1015.3
20260905231635 31 237 3.2 4.8 0.00 0.00 0.00 54 1015.0
20260905231131 31 52 3.2 4.8 0.00 0.00 0.00 53 1015.2
20260905230627 32 53 8.0 11.3 0.00 0.00 0.00 51 1015.2
20260905230125 32 21 9.7 11.3 0.00 0.00 0.00 50 1015.2
20260905225624 33 51 8.0 11.3 0.00 0.00 0.00 49 1014.9
20260905225119 33 159 3.2 4.8 0.00 0.00 0.00 48 1014.8
20260905224613 34 310 3.2 3.2 0.00 0.00 0.00 47 1014.6
20260905224112 35 0 4.8 4.8 0.00 0.00 0.00 46 1014.6
20260905223610 35 76 3.2 6.4 0.00 0.00 0.00 45 1014.6
20260905223106 37 180 4.8 6.4 0.00 0.00 0.00 44 1014.8
20260905222606 37 128 1.6 3.2 0.00 0.00 0.00 43 1014.4
20260905222056 37 173 3.2 3.2 0.00 0.00 0.00 45 1014.4
20260905221552 37 169 0.0 1.6 0.00 0.00 0.00 43 1014.2
20260905221048 37 176 0.0 0.0 0.00 0.00 0.00 44 1014.3
20260905220543 37 10 4.8 6.4 0.00 0.00 0.00 45 1014.3
20260905220039 37 207 3.2 4.8 0.00 0.00 0.00 43 1014.2
20260905215539 37 190 3.2 4.8 0.00 0.00 0.00 44 1014.2
20260905215035 37 29 1.6 1.6 0.00 0.00 0.00 44 1014.1
20260905214530 37 167 3.2 3.2 0.00 0.00 0.00 44 1014.3
20260905214026 37 248 4.8 6.4 0.00 0.00 0.00 44 1014.2
20260905213521 37 222 6.4 6.4 0.00 0.00 0.00 44 1014.2
20260905213016 37 243 3.2 4.8 0.00 0.00 0.00 43 1014.3
20260905212511 37 193 0.0 1.6 0.00 0.00 0.00 43 1014.4
20260905212010 37 170 3.2 3.2 0.00 0.00 0.00 44 1014.4
20260905211506 37 221 6.4 9.7 0.00 0.00 0.00 43 1014.4
20260905211001 37 301 1.6 3.2 0.00 0.00 0.00 46 1014.3
20260905210457 37 212 1.6 3.2 0.00 0.00 0.00 46 1014.2
20260905205955 37 353 4.8 4.8 0.00 0.00 0.00 47 1014.2
20260905205451 37 295 6.4 6.4 0.00 0.00 0.00 46 1014.2
20260905204949 37 234 6.4 6.4 0.00 0.00 0.00 45 1014.3
20260905204445 37 15 6.4 6.4 0.00 0.00 0.00 47 1014.3
20260905203944 37 303 1.6 1.6 0.00 0.00 0.00 44 1014.3
20260905203440 36 172 0.0 1.6 0.00 0.00 0.00 46 1014.5
20260905202935 36 135 1.6 3.2 0.00 0.00 0.00 45 1014.5
20260905202431 37 109 6.4 9.7 0.00 0.00 0.00 43 1014.5
20260905201926 38 352 4.8 6.4 0.00 0.00 0.00 43 1014.6
20260905201421 37 148 3.2 3.2 0.00 0.00 0.00 43 1014.9
20260905200920 37 236 3.2 3.2 0.00 0.00 0.00 46 1015.0
20260905200417 37 195 3.2 4.8 0.00 0.00 0.00 45 1015.0
20260905195914 37 69 4.8 6.4 0.00 0.00 0.00 44 1014.9
20260905195410 37 146 1.6 3.2 0.00 0.00 0.00 44 1015.1
20260905194906 37 34 3.2 3.2 0.00 0.00 0.00 44 1015.2
20260905194400 38 109 8.0 9.7 0.00 0.00 0.00 44 1015.4
20260905193859 37 171 1.6 1.6 0.00 0.00 0.00 45 1015.4
20260905193354 37 209 3.2 6.4 0.00 0.00 0.00 47 1015.4
20260905192850 36 318 6.4 6.4 0.00 0.00 0.00 48 1015.5
20260905192345 37 316 4.8 4.8 0.00 0.00 0.00 48 1015.5
20260905191844 37 164 6.4 9.7 0.00 0.00 0.00 44 1015.7
20260905191344 37 197 3.2 3.2 0.00 0.00 0.00 46 1015.5
20260905190843 37 302 4.8 4.8 0.00 0.00 0.00 45 1015.6
20260905190336 37 68 6.4 9.7 0.00 0.00 0.00 46 1015.9
20260905185835 37 320 4.8 9.7 0.00 0.00 0.00 46 1015.9
20260905185330 37 323 6.4 9.7 0.00 0.00 0.00 45 1016.0
20260905184824 37 354 8.0 11.3 0.00 0.00 0.00 45 1016.0
20260905184323 37 353 6.4 6.4 0.00 0.00 0.00 47 1016.3
20260905183821 37 213 1.6 3.2 0.00 0.00 0.00 49 1016.3
20260905183317 37 92 4.8 4.8 0.00 0.00 0.00 45 1016.5
20260905182812 37 176 0.0 1.6 0.00 0.00 0.00 47 1016.4
20260905182311 37 321 6.4 6.4 0.00 0.00 0.00 46 1016.3
20260905181807 37 332 8.0 9.7 0.00 0.00 0.00 47 1016.4
20260905181306 37 148 4.8 4.8 0.00 0.00 0.00 48 1016.5
20260905180801 37 180 3.2 4.8 0.00 0.00 0.00 45 1016.5
20260905180255 36 289 6.4 6.4 0.00 0.00 0.00 47 1016.5
20260905175749 36 30 6.4 6.4 0.00 0.00 0.00 47 1016.5
20260905175244 36 8 8.0 11.3 0.00 0.00 0.00 49 1016.7
20260905174739 36 249 1.6 1.6 0.00 0.00 0.00 48 1016.8
20260905174235 36 220 4.8 9.7 0.00 0.00 0.00 50 1016.5
20260905173731 36 315 8.0 9.7 0.00 0.00 0.00 50 1016.7
20260905173227 36 175 0.0 0.0 0.00 0.00 0.00 49 1016.9
20260905172721 35 195 3.2 3.2 0.00 0.00 0.00 51 1016.9
20260905172220 35 173 0.0 0.0 0.00 0.00 0.00 54 1017.0
20260905171716 35 170 0.0 1.6 0.00 0.00 0.00 54 1017.1
20260905171213 36 349 11.3 12.9 0.00 0.00 0.00 54 1017.1
20260905170710 36 52 3.2 3.2 0.00 0.00 0.00 53 1017.0
20260905170209 35 35 6.4 6.4 0.00 0.00 0.00 53 1017.3
20260905165704 35 3 4.8 4.8 0.00 0.00 0.00 55 1017.4
20260905165159 35 187 3.2 3.2 0.00 0.00 0.00 56 1017.3
20260905164654 35 176 3.2 3.2 0.00 0.00 0.00 56 1017.4
20260905164153 35 175 6.4 9.7 0.00 0.00 0.00 56 1017.5
20260905163649 35 29 6.4 9.7 0.00 0.00 0.00 56 1017.4
20260905163146 34 216 3.2 4.8 0.00 0.00 0.00 57 1017.6
20260905162642 35 64 4.8 4.8 0.00 0.00 0.00 56 1017.6
20260905162141 35 346 3.2 4.8 0.00 0.00 0.00 56 1017.6
20260905161640 34 167 1.6 3.2 0.00 0.00 0.00 57 1018.0
20260905161138 35 45 3.2 4.8 0.00 0.00 0.00 56 1018.1
20260905160633 34 183 0.0 1.6 0.00 0.00 0.00 56 1018.0
20260905160126 34 338 6.4 6.4 0.00 0.00 0.00 59 1018.1
20260905155621 34 190 6.4 6.4 0.00 0.00 0.00 57 1018.0
20260905155120 33 167 0.0 1.6 0.00 0.00 0.00 59 1018.0
20260905154619 33 16 6.4 9.7 0.00 0.00 0.00 59 1018.2
20260905154115 33 260 3.2 4.8 0.00 0.00 0.00 61 1018.1
20260905153611 33 117 3.2 3.2 0.00 0.00 0.00 61 1018.3
20260905153106 33 171 3.2 3.2 0.00 0.00 0.00 59 1018.0
20260905152601 33 188 0.0 1.6 0.00 0.00 0.00 62 1018.1
20260905152055 32 224 1.6 1.6 0.00 0.00 0.00 63 1018.0
20260905151551 33 173 1.6 1.6 0.00 0.00 0.00 64 1018.2
20260905151046 32 159 0.0 1.6 0.00 0.00 0.00 63 1018.2
20260905150541 33 0 1.6 3.2 0.00 0.00 0.00 62 1018.1
20260905150039 32 172 1.6 1.6 0.00 0.00 0.00 65 1018.2
20260905145532 32 171 0.0 0.0 0.00 0.00 0.00 65 1018.3
20260905145032 31 180 0.0 1.6 0.00 0.00 0.00 68 1018.3
20260905144522 32 202 4.8 4.8 0.00 0.00 0.00 66 1018.4
20260905144021 32 165 1.6 3.2 0.00 0.00 0.00 65 1018.3
20260905143520 31 175 0.0 1.6 0.00 0.00 0.00 69 1018.3
20260905143015 31 192 1.6 3.2 0.00 0.00 0.00 70 1018.3
20260905142514 31 139 0.0 0.0 0.00 0.00 0.00 69 1018.4
20260905142009 31 175 0.0 0.0 0.00 0.00 0.00 71 1018.5
20260905141503 31 173 1.6 1.6 0.00 0.00 0.00 71 1018.5
20260905141000 30 167 0.0 1.6 0.00 0.00 0.00 73 1018.5
20260905140455 30 165 0.0 1.6 0.00 0.00 0.00 75 1018.6
20260905135953 30 187 1.6 1.6 0.00 0.00 0.00 77 1018.7
20260905135449 30 169 0.0 0.0 0.00 0.00 0.00 75 1018.6
20260905134944 30 172 0.0 1.6 0.00 0.00 0.00 74 1018.6
20260905134443 29 157 0.0 0.0 0.00 0.00 0.00 77 1018.5
20260905133943 30 162 0.0 0.0 0.00 0.00 0.00 78 1018.5
20260905133438 28 168 0.0 0.0 0.00 0.00 0.00 81 1018.6
20260905132937 27 163 0.0 0.0 0.00 0.00 0.00 84 1018.6
20260905132432 27 166 0.0 0.0 0.00 0.00 0.00 83 1018.5
20260905131928 27 156 0.0 0.0 0.00 0.00 0.00 82 1018.6
20260905131424 27 166 0.0 0.0 0.00 0.00 0.00 86 1018.4
20260905130923 26 166 0.0 0.0 0.00 0.00 0.00 87 1018.5
20260905130418 26 167 0.0 1.6 0.00 0.00 0.00 88 1018.5
20260905125917 25 167 0.0 0.0 0.00 0.00 0.00 89 1018.5
20260905125412 25 166 0.0 0.0 0.00 0.00 0.00 94 1018.5
20260905124908 24 151 0.0 0.0 0.00 0.00 0.00 96 1018.6
20260905124404 23 164 0.0 0.0 0.00 0.00 0.00 97 1018.8
20260905123904 23 159 0.0 0.0 0.00 0.00 0.00 98 1018.8
20260905123401 23 178 0.0 0.0 0.00 0.00 0.00 99 1018.7
20260905122856 23 161 0.0 0.0 0.00 0.00 0.00 99 1018.5
20260905122355 23 166 0.0 0.0 0.00 0.00 0.00 99 1018.5
20260905121851 22 164 0.0 0.0 0.00 0.00 0.00 99 1018.4
20260905121347 22 173 0.0 0.0 0.00 0.00 0.00 99 1018.4
20260905120846 22 173 0.0 0.0 0.00 0.00 0.00 99 1018.5
20260905120346 22 173 0.0 0.0 0.00 0.00 0.00 99 1018.5
20260905115841 22 173 0.0 0.0 0.00 0.00 0.00 99 1018.4
20260905115340 22 173 0.0 0.0 0.00 0.00 0.00 99 1018.3
20260905114835 21 171 0.0 0.0 0.00 0.00 0.00 99 1018.4
20260905114334 21 164 0.0 0.0 0.00 0.00 0.00 99 1018.2
20260905113833 21 166 0.0 0.0 0.00 0.00 0.00 99 1018.2
20260905113329 21 168 0.0 0.0 0.00 0.00 0.00 99 1018.1
20260905112824 21 168 0.0 0.0 0.00 0.00 0.00 99 1018.0
20260905112320 21 168 0.0 0.0 0.00 0.00 0.00 99 1018.0
20260905111815 21 168 0.0 0.0 0.00 0.00 0.00 99 1017.9
20260905111314 21 168 0.0 0.0 0.00 0.00 0.00 99 1017.8
20260905110809 21 168 0.0 0.0 0.00 0.00 0.00 99 1017.8
20260905110308 21 162 0.0 0.0 0.00 0.00 0.00 99 1017.5
20260905105803 21 167 0.0 0.0 0.00 0.00 0.00 99 1017.6
20260905105305 21 167 0.0 0.0 0.00 0.00 0.00 99 1017.6
20260905104757 21 167 0.0 0.0 0.00 0.00 0.00 99 1017.6
20260905104254 21 167 0.0 0.0 0.00 0.00 0.00 99 1017.4
20260905103753 21 167 0.0 0.0 0.00 0.00 0.00 99 1017.4
20260905103249 21 168 0.0 0.0 0.00 0.00 0.00 99 1017.4
20260905102744 21 168 0.0 0.0 0.00 0.00 0.00 99 1017.3
20260905102241 21 168 0.0 0.0 0.00 0.00 0.00 99 1017.5
20260905101740 21 165 0.0 0.0 0.00 0.00 0.00 99 1017.4
20260905101238 22 165 0.0 0.0 0.00 0.00 0.00 99 1017.7
20260905100734 21 169 0.0 0.0 0.00 0.00 0.00 99 1017.4
20260905100230 21 169 0.0 0.0 0.00 0.00 0.00 99 1017.4
20260905095729 21 170 0.0 0.0 0.00 0.00 0.00 99 1017.4
20260905095223 22 170 0.0 0.0 0.00 0.00 0.00 99 1017.6
20260905094718 22 174 0.0 0.0 0.00 0.00 0.00 99 1017.5
20260905094213 22 136 0.0 0.0 0.00 0.00 0.00 99 1017.4
20260905093713 22 172 0.0 0.0 0.00 0.00 0.00 99 1017.4
20260905093209 22 185 0.0 0.0 0.00 0.00 0.00 99 1017.3
20260905092704 22 171 0.0 0.0 0.00 0.00 0.00 99 1017.3
20260905092200 22 159 0.0 0.0 0.00 0.00 0.00 99 1017.3
20260905091659 21 168 0.0 0.0 0.00 0.00 0.00 99 1017.1
20260905091200 22 168 0.0 0.0 0.00 0.00 0.00 99 1017.2
20260905090659 22 168 0.0 0.0 0.00 0.00 0.00 99 1017.2
20260905090155 22 168 0.0 0.0 0.00 0.00 0.00 99 1017.1
20260905085653 22 168 0.0 0.0 0.00 0.00 0.00 99 1017.1
20260905085149 22 168 0.0 0.0 0.00 0.00 0.00 99 1016.9
20260905084648 22 168 0.0 0.0 0.00 0.00 0.00 99 1017.2
20260905084143 22 168 0.0 0.0 0.00 0.00 0.00 99 1017.0
20260905083638 22 164 0.0 0.0 0.00 0.00 0.00 99 1016.9
20260905083134 22 156 0.0 0.0 0.00 0.00 0.00 99 1016.9
20260905082630 22 172 0.0 0.0 0.00 0.00 0.00 99 1016.9
20260905082125 22 172 0.0 0.0 0.00 0.00 0.00 99 1016.8
20260905081619 22 172 0.0 0.0 0.00 0.00 0.00 99 1016.9
20260905081115 22 172 0.0 0.0 0.00 0.00 0.00 99 1017.0
20260905080614 22 172 0.0 0.0 0.00 0.00 0.00 99 1016.9
20260905080109 22 172 0.0 0.0 0.00 0.00 0.00 99 1016.9
20260905075608 22 142 0.0 0.0 0.00 0.00 0.00 99 1017.0
20260905075108 22 152 0.0 0.0 0.00 0.00 0.00 99 1016.9
20260905074607 22 169 0.0 0.0 0.00 0.00 0.00 99 1017.0
20260905074103 22 170 0.0 0.0 0.00 0.00 0.00 99 1017.0
20260905073558 22 170 0.0 0.0 0.00 0.00 0.00 99 1016.9
20260905073054 22 170 0.0 0.0 0.00 0.00 0.00 99 1016.9
20260905072553 22 170 0.0 0.0 0.00 0.00 0.00 99 1016.9
20260905072048 22 166 0.0 0.0 0.00 0.00 0.00 99 1017.1
20260905071545 22 166 0.0 0.0 0.00 0.00 0.00 99 1016.8
20260905071040 22 163 0.0 0.0 0.00 0.00 0.00 99 1016.9
20260905070535 22 170 0.0 0.0 0.00 0.00 0.00 99 1016.9
20260905070031 22 121 0.0 0.0 0.00 0.00 0.00 99 1016.9
20260905065528 22 148 0.0 0.0 0.00 0.00 0.00 99 1017.1
20260905065024 22 170 0.0 0.0 0.00 0.00 0.00 99 1017.0
20260905064519 22 172 0.0 0.0 0.00 0.00 0.00 99 1017.0
20260905064014 22 172 0.0 0.0 0.00 0.00 0.00 99 1017.1
20260905063513 22 172 0.0 0.0 0.00 0.00 0.00 99 1017.3
20260905063010 22 172 0.0 0.0 0.00 0.00 0.00 99 1017.2
20260905062509 22 172 0.0 0.0 0.00 0.00 0.00 99 1017.3
20260905062004 22 172 0.0 0.0 0.00 0.00 0.00 99 1017.5
20260905061459 22 172 0.0 0.0 0.00 0.00 0.00 99 1017.5
20260905060958 22 172 0.0 0.0 0.00 0.00 0.00 99 1017.3
20260905060454 22 172 0.0 0.0 0.00 0.00 0.00 98 1017.4
20260905055949 22 172 0.0 0.0 0.00 0.00 0.00 99 1017.4
20260905055448 23 172 0.0 0.0 0.00 0.00 0.00 99 1017.5
20260905054943 22 172 0.0 0.0 0.00 0.00 0.00 99 1017.6
20260905054438 22 172 0.0 0.0 0.00 0.00 0.00 98 1017.5
20260905053933 22 172 0.0 0.0 0.00 0.00 0.00 98 1017.4
20260905053428 23 172 0.0 0.0 0.00 0.00 0.00 98 1017.3
20260905052924 23 172 0.0 0.0 0.00 0.00 0.00 98 1017.8